Regional Weather Roundup
Issued by NWS

Home | Current Version | Previous Version | Graphics & Text | Print | Product List | Glossary On
Versions: 1 2 3 4 5 6 7 8 9 10 11 12 13 14 15 16 17 18 19 20 21 22 23 24 25 26 27 28 29 30 31 32 33 34 35 36 37 38 39 40 41 42 43 44 45 46 47 48 49 50
000
ASUS43 KIND 280909
RWRIN

WEATHER ROUNDUP FOR INDIANA
NATIONAL WEATHER SERVICE INDIANAPOLIS IN
500 AM EDT FRI AUG 28 2015

NOTE: "FAIR" INDICATES FEW OR NO CLOUDS BELOW 12,000 FEET WITH NO
SIGNIFICANT WEATHER AND/OR OBSTRUCTIONS TO VISIBILITY.

* - STATION DOES NOT REPORT WEATHER SUCH AS PRECIPITATION OR FOG.

+ - STATION NOT QUALITY CONTROLLED BY THE NATIONAL WEATHER SERVICE.
    USE DATA WITH CAUTION...ESPECIALLY DEWPOINT AND RELATIVE
    HUMIDITY OBSERVATIONS.

INZ001>003-010>013-019-020-281000-
NORTHWEST INDIANA

CITY           SKY/WX    TMP DP  RH WIND       PRES   REMARKS
GARY /AIRPORT/ CLEAR     59  55  87 SE3       30.13F
KNOX *+        MOCLDY    50  50 100 CALM      30.14S VSB 1
LA PORTE +     PTCLDY   N/A N/A N/A CALM      30.16S HAZE
MICHIGAN CITY+ CLEAR     57  55  94 CALM      30.15R
MONTICELLO +   CLEAR     59  57  93 CALM      30.13S
RENSSELAER +   CLEAR     55  55 100 NE5       30.14S
VALPARAISO     CLEAR     54  52  93 NE6       30.15S

$$

LMZ046-743>745-281000-
SOUTHERN LAKE MICHIGAN

STATION/POSITION TIME  TEMP    WIND        PRES    WAVE
                       AIR SEA DIR/SP/G            HT
                 (UTC) (F)     (DEG/KT/KT) (MB)    (FT)
BURNS HARBOR     0800   63     140/  8/ 12 1020.7F
MICHIGAN CITY    0800   60     120/  9/ 11   N/A
5NW MICH CITY    0900   63 71  160/ 12/ 14   N/A     1

$$

INZ004-005-014>016-021>024-281000-
NORTH CENTRAL INDIANA

CITY           SKY/WX    TMP DP  RH WIND       PRES   REMARKS
GOSHEN         PTCLDY    56  54  93 SE5       30.16R
LOGANSPORT +   CLEAR     52  50  93 E6        30.16R
PERU/GRISSOM   CLEAR     57  54  89 SE6       30.15R
ROCHESTER +    PTCLDY    59  59 100 E3        30.16R
SOUTH BEND     CLEAR     55  53  93 CALM      30.17R
WARSAW +       MOCLDY    54  54 100 CALM      30.16S FOG

$$

INZ006>009-017-018-025>027-281000-
NORTHEAST INDIANA

CITY           SKY/WX    TMP DP  RH WIND       PRES   REMARKS
ANGOLA *+      CLEAR     54  54 100 SE3       30.17S
AUBURN +         N/A     52  50  93 CALM      30.18R FOG
FORT WAYNE     PTCLDY    56  53  90 CALM      30.17S
HUNTINGTON +   CLEAR     54  50  88 CALM      30.17R FOG

$$

INZ028-029-035-036-043>045-051>053-281000-
WEST CENTRAL INDIANA

CITY           SKY/WX    TMP DP  RH WIND       PRES   REMARKS
CRAWFORDSVL +  MOCLDY    54  54 100 CALM      30.14S
GREENCASTLE +  MOCLDY    55  54  94 CALM      30.15F FOG
LAFAYETTE      CLEAR     57  55  93 CALM      30.13S
TERRE HAUTE    CLOUDY    61  58  90 SE3       30.13S

$$

INZ030>032-037>040-046>048-054>057-064-065-281000-
CENTRAL INDIANA

CITY           SKY/WX    TMP DP  RH WIND       PRES   REMARKS
FRANKFORT +    CLEAR    N/A N/A N/A E6        30.16S
GREENWOOD *+   CLEAR     55  52  88 CALM      30.17R
INDIANAPOLIS   CLEAR     63  56  78 CALM      30.14R
-EAGLE CREEK   CLEAR     59  56  89 CALM      30.15R
KOKOMO *+      CLEAR     54  50  87 SE3       30.17R
MARION +       PTCLDY    55  49  82 CALM      30.17R
MT COMFORT *+  CLEAR     52 N/A N/A CALM      30.16R
SHELBYVILLE    CLEAR     55  52  89 CALM      30.15R
ZIONSVILLE +     N/A     54  51  90 CALM      30.17R FOG

$$

INZ033-034-041-042-049-050-058-059-281000-
EAST CENTRAL INDIANA

CITY           SKY/WX    TMP DP  RH WIND       PRES   REMARKS
MUNCIE         CLEAR     53  52  96 SE3       30.16S

$$

INZ060-061-067>069-081>083-085>088-281000-
SOUTHWEST INDIANA

CITY           SKY/WX    TMP DP  RH WIND       PRES   REMARKS
EVANSVILLE     CLEAR     60  57  89 NE3       30.12S
HUNTINGBURG *+ CLEAR     57  54  88 E3        30.13S
WASHINGTON +   CLEAR     55  52  88 CALM      30.15R

$$

INZ062-063-066-070>080-084-089>092-281000-
SOUTH CENTRAL AND SOUTHEAST INDIANA

CITY           SKY/WX    TMP DP  RH WIND       PRES   REMARKS
BLOOMINGTON    CLEAR     54  53  97 CALM      30.15R FOG
MADISON *+     CLEAR     54  52  94 CALM      30.16S
NORTH VERNON + CLEAR     57  57 100 CALM      30.15S
SEYMOUR +      FOG       52  52 100 CALM      30.15R VSB 1/2

$$



USA.gov is the U.S. government's official web portal to all federal, state and local government web resources and services.